Time,TemperatureF,DewpointF,PressureIn,WindDirection,WindDirectionDegrees,WindSpeedMPH,WindSpeedGustMPH,Humidity,HourlyPrecipIn,Conditions,Clouds,dailyrainin,SoftwareType,DateUTC
2013-07-30 00:08:00,56.3,51.2,30.12,ENE,68,1.6,2.2,83,0.00,,---,0.00,VWS V14.01,2013-07-30 07:08:00,
2013-07-30 00:18:00,56.5,51.4,30.09,WNW,292,2.0,2.0,83,0.00,,---,0.00,VWS V14.01,2013-07-30 07:18:00,
2013-07-30 00:23:00,56.5,51.1,30.09,NE,45,0.0,2.0,82,0.00,,---,0.00,VWS V14.01,2013-07-30 07:23:00,
2013-07-30 00:28:00,56.5,51.1,30.09,ENE,68,0.0,0.0,82,0.00,,---,0.00,VWS V14.01,2013-07-30 07:28:00,
2013-07-30 00:38:00,56.7,50.9,30.09,NE,45,0.0,1.6,81,0.00,,---,0.00,VWS V14.01,2013-07-30 07:38:00,
2013-07-30 00:48:00,56.7,50.9,30.12,ENE,68,0.0,3.4,81,0.00,,---,0.00,VWS V14.01,2013-07-30 07:48:00,
2013-07-30 00:53:00,56.7,50.9,30.12,North,0,0.0,1.6,81,0.00,,---,0.00,VWS V14.01,2013-07-30 07:53:00,
2013-07-30 00:58:00,56.7,50.9,30.12,NE,45,1.3,1.6,81,0.00,,---,0.00,VWS V14.01,2013-07-30 07:58:00,
2013-07-30 01:03:00,56.7,50.9,30.12,NNE,22,0.9,2.0,81,0.00,,---,0.00,VWS V14.01,2013-07-30 08:03:00,
2013-07-30 01:13:00,56.7,50.9,30.12,NNW,338,0.0,4.7,81,0.00,,---,0.00,VWS V14.01,2013-07-30 08:13:00,
2013-07-30 01:18:00,56.7,50.9,30.12,NNE,22,2.7,3.1,81,0.00,,---,0.00,VWS V14.01,2013-07-30 08:18:00,
2013-07-30 01:28:00,56.8,50.7,30.12,NE,45,0.0,1.1,80,0.00,,---,0.00,VWS V14.01,2013-07-30 08:28:00,
2013-07-30 01:38:00,56.8,50.7,30.12,SE,135,0.0,2.7,80,0.00,,---,0.00,VWS V14.01,2013-07-30 08:38:00,
2013-07-30 01:48:00,56.8,50.7,30.12,ENE,68,0.9,1.6,80,0.00,,---,0.00,VWS V14.01,2013-07-30 08:48:00,
2013-07-30 01:53:00,56.8,50.4,30.12,SSW,202,0.0,0.9,79,0.00,,---,0.00,VWS V14.01,2013-07-30 08:53:00,
2013-07-30 01:58:00,56.8,50.4,30.12,WNW,292,0.0,1.6,79,0.00,,---,0.00,VWS V14.01,2013-07-30 08:58:00,
2013-07-30 02:08:00,56.8,50.4,30.12,North,0,1.1,1.1,79,0.00,,---,0.00,VWS V14.01,2013-07-30 09:08:00,
2013-07-30 02:13:00,56.8,50.4,30.12,NE,45,0.0,1.6,79,0.00,,---,0.00,VWS V14.01,2013-07-30 09:13:00,
2013-07-30 02:18:00,56.8,50.4,30.12,WNW,292,0.0,1.6,79,0.00,,---,0.00,VWS V14.01,2013-07-30 09:18:00,
2013-07-30 02:23:00,56.8,50.4,30.12,WNW,292,0.0,0.0,79,0.00,,---,0.00,VWS V14.01,2013-07-30 09:23:00,
2013-07-30 02:28:00,56.8,50.4,30.12,WSW,248,0.0,1.3,79,0.00,,---,0.00,VWS V14.01,2013-07-30 09:28:00,
2013-07-30 02:38:00,56.8,50.1,30.12,West,270,0.0,0.0,78,0.00,,---,0.00,VWS V14.01,2013-07-30 09:38:00,
2013-07-30 02:48:00,56.8,50.1,30.12,ESE,112,0.0,2.7,78,0.00,,---,0.00,VWS V14.01,2013-07-30 09:48:00,
2013-07-30 02:53:00,56.8,50.1,30.12,NNW,338,0.0,2.5,78,0.00,,---,0.00,VWS V14.01,2013-07-30 09:53:00,
2013-07-30 02:58:00,56.8,50.1,30.12,NW,315,0.0,2.2,78,0.00,,---,0.00,VWS V14.01,2013-07-30 09:58:00,
2013-07-30 03:08:00,56.8,50.1,30.15,WSW,248,0.0,2.2,78,0.00,,---,0.00,VWS V14.01,2013-07-30 10:08:00,
2013-07-30 03:13:00,56.8,50.1,30.15,NNE,22,0.0,0.0,78,0.00,,---,0.00,VWS V14.01,2013-07-30 10:13:00,
2013-07-30 03:18:00,56.8,50.1,30.12,ENE,68,0.0,2.7,78,0.00,,---,0.00,VWS V14.01,2013-07-30 10:18:00,
2013-07-30 03:23:00,56.8,50.1,30.12,ENE,68,0.0,0.0,78,0.00,,---,0.00,VWS V14.01,2013-07-30 10:23:00,
2013-07-30 03:28:00,56.8,50.1,30.12,ENE,68,0.0,0.0,78,0.00,,---,0.00,VWS V14.01,2013-07-30 10:28:00,
2013-07-30 03:38:00,56.8,50.1,30.12,SSE,158,0.0,0.9,78,0.00,,---,0.00,VWS V14.01,2013-07-30 10:38:00,
2013-07-30 03:48:00,56.7,49.9,30.12,ENE,68,1.1,3.8,78,0.00,,---,0.00,VWS V14.01,2013-07-30 10:48:00,
2013-07-30 03:53:00,56.7,49.9,30.12,NNE,22,0.0,1.1,78,0.00,,---,0.00,VWS V14.01,2013-07-30 10:53:00,
2013-07-30 03:58:00,56.7,49.9,30.12,ENE,68,0.0,0.0,78,0.00,,---,0.00,VWS V14.01,2013-07-30 10:58:00,
2013-07-30 04:08:00,56.8,50.1,30.12,ENE,68,0.0,1.6,78,0.00,,---,0.00,VWS V14.01,2013-07-30 11:08:00,
2013-07-30 04:13:00,56.8,50.1,30.12,WSW,248,0.0,2.0,78,0.00,,---,0.00,VWS V14.01,2013-07-30 11:13:00,
2013-07-30 04:23:00,56.7,49.9,30.12,ENE,68,0.0,2.0,78,0.00,,---,0.00,VWS V14.01,2013-07-30 11:23:00,
2013-07-30 04:28:00,56.7,49.9,30.12,NNW,338,0.0,2.2,78,0.00,,---,0.00,VWS V14.01,2013-07-30 11:28:00,
2013-07-30 04:38:00,56.7,49.9,30.12,ENE,68,2.7,2.7,78,0.00,,---,0.00,VWS V14.01,2013-07-30 11:38:00,
2013-07-30 04:43:00,56.7,49.9,30.12,ESE,112,2.0,2.7,78,0.00,,---,0.00,VWS V14.01,2013-07-30 11:43:00,
2013-07-30 04:53:00,56.8,50.1,30.12,WNW,292,0.0,0.0,78,0.00,,---,0.00,VWS V14.01,2013-07-30 11:53:00,
2013-07-30 04:58:00,56.8,50.1,30.12,East,90,1.6,2.9,78,0.00,,---,0.00,VWS V14.01,2013-07-30 11:58:00,
2013-07-30 05:03:00,56.7,49.9,30.12,NNW,338,0.0,2.0,78,0.00,,---,0.00,VWS V14.01,2013-07-30 12:03:00,
2013-07-30 05:08:00,56.7,49.9,30.12,NNW,338,0.0,0.9,78,0.00,,---,0.00,VWS V14.01,2013-07-30 12:08:00,
2013-07-30 05:13:00,56.7,49.9,30.12,NNE,22,0.0,1.3,78,0.00,,---,0.00,VWS V14.01,2013-07-30 12:13:00,
2013-07-30 05:18:00,56.7,49.9,30.12,ENE,68,0.0,2.5,78,0.00,,---,0.00,VWS V14.01,2013-07-30 12:18:00,
2013-07-30 05:23:00,56.7,49.9,30.12,NNE,22,0.0,0.0,78,0.00,,---,0.00,VWS V14.01,2013-07-30 12:23:00,
2013-07-30 05:33:00,56.7,49.9,30.12,NNE,22,0.0,0.0,78,0.00,,---,0.00,VWS V14.01,2013-07-30 12:33:00,
2013-07-30 05:38:00,56.7,49.9,30.12,NNE,22,0.0,0.0,78,0.00,,---,0.00,VWS V14.01,2013-07-30 12:38:00,
2013-07-30 05:48:00,56.8,50.4,30.09,WSW,248,0.0,1.3,79,0.00,,---,0.00,VWS V14.01,2013-07-30 12:48:00,
2013-07-30 05:53:00,56.8,50.4,30.09,WSW,248,0.0,0.0,79,0.00,,---,0.00,VWS V14.01,2013-07-30 12:53:00,
2013-07-30 05:58:00,56.8,50.4,30.09,WNW,292,0.0,0.0,79,0.00,,---,0.00,VWS V14.01,2013-07-30 12:58:00,
2013-07-30 06:08:00,56.8,50.4,30.12,NW,315,0.0,0.0,79,0.00,,---,0.00,VWS V14.01,2013-07-30 13:08:00,
2013-07-30 06:13:00,56.8,50.4,30.12,WNW,292,0.0,0.0,79,0.00,,---,0.00,VWS V14.01,2013-07-30 13:13:00,
2013-07-30 06:23:00,56.8,50.4,30.12,West,270,0.0,0.0,79,0.00,,---,0.00,VWS V14.01,2013-07-30 13:23:00,
2013-07-30 06:28:00,57.0,50.6,30.12,NNE,22,0.0,0.0,79,0.00,,---,0.00,VWS V14.01,2013-07-30 13:28:00,
2013-07-30 06:38:00,57.2,50.8,30.12,NNE,22,0.0,1.3,79,0.00,,---,0.00,VWS V14.01,2013-07-30 13:38:00,
2013-07-30 06:43:00,57.2,50.4,30.12,WSW,248,0.0,0.0,78,0.00,,---,0.00,VWS V14.01,2013-07-30 13:43:00,
2013-07-30 06:48:00,57.4,50.6,30.15,NNW,338,0.0,0.0,78,0.00,,---,0.00,VWS V14.01,2013-07-30 13:48:00,
2013-07-30 06:53:00,57.6,50.8,30.15,NE,45,0.0,1.6,78,0.00,,---,0.00,VWS V14.01,2013-07-30 13:53:00,
2013-07-30 06:58:00,57.6,50.8,30.15,NW,315,0.0,0.0,78,0.00,,---,0.00,VWS V14.01,2013-07-30 13:58:00,
2013-07-30 07:08:00,57.9,51.1,30.15,North,0,0.0,1.1,78,0.00,,---,0.00,VWS V14.01,2013-07-30 14:08:00,
2013-07-30 07:18:00,58.3,51.5,30.15,WNW,292,0.0,0.0,78,0.00,,---,0.00,VWS V14.01,2013-07-30 14:18:00,
2013-07-30 07:23:00,58.5,51.3,30.15,WNW,292,0.0,0.9,77,0.00,,---,0.00,VWS V14.01,2013-07-30 14:23:00,
2013-07-30 07:28:00,58.6,51.5,30.15,SSW,202,0.0,0.0,77,0.00,,---,0.00,VWS V14.01,2013-07-30 14:28:00,
2013-07-30 07:38:00,59.0,51.5,30.15,West,270,0.0,2.9,76,0.00,,---,0.00,VWS V14.01,2013-07-30 14:38:00,
2013-07-30 07:48:00,59.4,51.5,30.15,WSW,248,0.0,0.0,75,0.00,,---,0.00,VWS V14.01,2013-07-30 14:48:00,
2013-07-30 07:53:00,59.5,51.3,30.15,WNW,292,0.0,0.0,74,0.00,,---,0.00,VWS V14.01,2013-07-30 14:53:00,
2013-07-30 07:58:00,59.7,51.4,30.15,WSW,248,0.0,2.0,74,0.00,,---,0.00,VWS V14.01,2013-07-30 14:58:00,
2013-07-30 08:08:00,60.1,51.4,30.18,WSW,248,0.0,0.9,73,0.00,,---,0.00,VWS V14.01,2013-07-30 15:08:00,
2013-07-30 08:18:00,60.4,51.4,30.18,WSW,248,0.0,2.9,72,0.00,,---,0.00,VWS V14.01,2013-07-30 15:18:00,
2013-07-30 08:23:00,60.8,51.3,30.18,West,270,0.0,0.0,71,0.00,,---,0.00,VWS V14.01,2013-07-30 15:23:00,
2013-07-30 08:28:00,61.2,51.3,30.18,WSW,248,0.0,2.2,70,0.00,,---,0.00,VWS V14.01,2013-07-30 15:28:00,
2013-07-30 08:38:00,61.7,51.4,30.18,South,180,0.0,1.3,69,0.00,,---,0.00,VWS V14.01,2013-07-30 15:38:00,
2013-07-30 08:48:00,62.1,50.2,30.21,WSW,248,1.1,4.3,65,0.00,,---,0.00,VWS V14.01,2013-07-30 15:48:00,
2013-07-30 08:53:00,62.4,50.9,30.21,West,270,1.6,2.9,66,0.00,,---,0.00,VWS V14.01,2013-07-30 15:53:00,
2013-07-30 08:58:00,63.0,50.6,30.21,ENE,68,0.0,3.1,64,0.00,,---,0.00,VWS V14.01,2013-07-30 15:58:00,
2013-07-30 09:08:00,65.1,51.3,30.18,West,270,0.0,2.9,61,0.00,,---,0.00,VWS V14.01,2013-07-30 16:08:00,
2013-07-30 09:13:00,64.9,49.8,30.18,SW,225,0.0,3.4,58,0.00,,---,0.00,VWS V14.01,2013-07-30 16:13:00,
2013-07-30 09:23:00,68.2,50.4,30.21,WSW,248,2.0,2.7,53,0.00,,---,0.00,VWS V14.01,2013-07-30 16:23:00,
2013-07-30 09:28:00,69.1,49.7,30.21,WSW,248,0.0,3.8,50,0.00,,---,0.00,VWS V14.01,2013-07-30 16:28:00,
2013-07-30 09:38:00,70.7,48.9,30.18,WNW,292,0.0,3.6,46,0.00,,---,0.00,VWS V14.01,2013-07-30 16:38:00,
2013-07-30 09:48:00,70.9,47.9,30.18,WSW,248,0.0,4.7,44,0.00,,---,0.00,VWS V14.01,2013-07-30 16:48:00,
2013-07-30 09:53:00,70.2,47.2,30.18,SSW,202,0.0,3.8,44,0.00,,---,0.00,VWS V14.01,2013-07-30 16:53:00,
2013-07-30 09:58:00,69.8,47.5,30.18,West,270,0.0,4.3,45,0.00,,---,0.00,VWS V14.01,2013-07-30 16:58:00,
2013-07-30 10:08:00,72.1,49.0,30.18,WNW,292,3.1,3.1,44,0.00,,---,0.00,VWS V14.01,2013-07-30 17:08:00,
2013-07-30 10:13:00,71.4,47.2,30.18,WSW,248,3.1,4.7,42,0.00,,---,0.00,VWS V14.01,2013-07-30 17:13:00,
2013-07-30 10:18:00,72.0,47.6,30.18,ENE,68,2.2,3.8,42,0.00,,---,0.00,VWS V14.01,2013-07-30 17:18:00,
2013-07-30 10:23:00,72.3,47.3,30.18,West,270,2.0,3.4,41,0.00,,---,0.00,VWS V14.01,2013-07-30 17:23:00,
2013-07-30 10:28:00,72.9,47.2,30.18,NW,315,2.2,3.6,40,0.00,,---,0.00,VWS V14.01,2013-07-30 17:28:00,
2013-07-30 10:38:00,73.9,47.5,30.18,WSW,248,0.0,3.8,39,0.00,,---,0.00,VWS V14.01,2013-07-30 17:38:00,
2013-07-30 10:48:00,74.1,46.2,30.18,WSW,248,1.1,3.4,37,0.00,,---,0.00,VWS V14.01,2013-07-30 17:48:00,
2013-07-30 10:53:00,74.3,45.7,30.18,WSW,248,2.7,3.8,36,0.00,,---,0.00,VWS V14.01,2013-07-30 17:53:00,
2013-07-30 10:58:00,74.5,45.1,30.18,SSW,202,3.4,4.3,35,0.00,,---,0.00,VWS V14.01,2013-07-30 17:58:00,
2013-07-30 11:08:00,76.3,45.9,30.18,West,270,3.1,3.6,34,0.00,,---,0.00,VWS V14.01,2013-07-30 18:08:00,
2013-07-30 11:13:00,76.1,45.7,30.18,NW,315,1.6,3.4,34,0.00,,---,0.00,VWS V14.01,2013-07-30 18:13:00,
2013-07-30 11:23:00,77.0,45.7,30.18,SW,225,2.0,3.1,33,0.00,,---,0.00,VWS V14.01,2013-07-30 18:23:00,
2013-07-30 11:28:00,76.8,44.8,30.18,NW,315,2.9,5.4,32,0.00,,---,0.00,VWS V14.01,2013-07-30 18:28:00,
2013-07-30 11:33:00,77.0,44.9,30.18,WSW,248,2.0,3.6,32,0.00,,---,0.00,VWS V14.01,2013-07-30 18:33:00,
2013-07-30 11:38:00,77.4,45.2,30.18,WSW,248,2.5,4.7,32,0.00,,---,0.00,VWS V14.01,2013-07-30 18:38:00,
2013-07-30 11:48:00,78.6,46.3,30.18,NW,315,3.6,3.6,32,0.00,,---,0.00,VWS V14.01,2013-07-30 18:48:00,
2013-07-30 11:58:00,79.5,46.3,30.18,WNW,292,1.6,2.9,31,0.00,,---,0.00,VWS V14.01,2013-07-30 18:58:00,
2013-07-30 12:08:00,79.9,46.6,30.18,SW,225,2.9,3.6,31,0.00,,---,0.00,VWS V14.01,2013-07-30 19:08:00,
2013-07-30 12:18:00,79.7,45.6,30.18,NW,315,2.7,4.7,30,0.00,,---,0.00,VWS V14.01,2013-07-30 19:18:00,
2013-07-30 12:23:00,79.2,45.1,30.18,West,270,4.9,4.9,30,0.00,,---,0.00,VWS V14.01,2013-07-30 19:23:00,
2013-07-30 12:28:00,78.4,44.5,30.18,West,270,3.1,7.2,30,0.00,,---,0.00,VWS V14.01,2013-07-30 19:28:00,
2013-07-30 12:38:00,79.9,45.7,30.18,SE,135,2.0,3.8,30,0.00,,---,0.00,VWS V14.01,2013-07-30 19:38:00,
2013-07-30 12:48:00,81.0,45.8,30.18,NNW,338,2.5,5.8,29,0.00,,---,0.00,VWS V14.01,2013-07-30 19:48:00,
2013-07-30 12:58:00,82.4,47.0,30.18,WNW,292,1.3,3.1,29,0.00,,---,0.00,VWS V14.01,2013-07-30 19:58:00,
2013-07-30 13:08:00,83.3,47.8,30.15,ENE,68,0.0,2.9,29,0.00,,---,0.00,VWS V14.01,2013-07-30 20:08:00,
2013-07-30 13:18:00,82.9,46.5,30.15,SW,225,1.1,4.0,28,0.00,,---,0.00,VWS V14.01,2013-07-30 20:18:00,
2013-07-30 13:23:00,82.4,46.1,30.15,SW,225,3.1,3.4,28,0.00,,---,0.00,VWS V14.01,2013-07-30 20:23:00,
2013-07-30 13:28:00,82.8,46.4,30.15,WSW,248,0.0,3.4,28,0.00,,---,0.00,VWS V14.01,2013-07-30 20:28:00,
2013-07-30 13:38:00,81.9,45.6,30.15,ENE,68,2.5,4.9,28,0.00,,---,0.00,VWS V14.01,2013-07-30 20:38:00,
2013-07-30 13:43:00,82.2,46.8,30.15,South,180,3.1,4.3,29,0.00,,---,0.00,VWS V14.01,2013-07-30 20:43:00,
2013-07-30 13:48:00,81.5,44.3,30.15,WSW,248,2.7,4.9,27,0.00,,---,0.00,VWS V14.01,2013-07-30 20:48:00,
2013-07-30 13:53:00,81.3,46.1,30.15,NW,315,3.4,4.3,29,0.00,,---,0.00,VWS V14.01,2013-07-30 20:53:00,
2013-07-30 13:58:00,81.7,46.4,30.15,NNW,338,2.9,3.8,29,0.00,,---,0.00,VWS V14.01,2013-07-30 20:58:00,
2013-07-30 14:08:00,81.9,44.6,30.15,WSW,248,2.7,4.0,27,0.00,,---,0.00,VWS V14.01,2013-07-30 21:08:00,
2013-07-30 14:18:00,81.9,44.6,30.15,West,270,2.9,3.8,27,0.00,,---,0.00,VWS V14.01,2013-07-30 21:18:00,
2013-07-30 14:23:00,82.6,46.2,30.15,NW,315,0.0,3.6,28,0.00,,---,0.00,VWS V14.01,2013-07-30 21:23:00,
2013-07-30 14:28:00,82.2,45.9,30.15,West,270,2.7,5.4,28,0.00,,---,0.00,VWS V14.01,2013-07-30 21:28:00,
2013-07-30 14:38:00,81.0,43.9,30.15,WSW,248,4.9,4.9,27,0.00,,---,0.00,VWS V14.01,2013-07-30 21:38:00,
2013-07-30 14:43:00,80.6,45.4,30.15,WSW,248,1.3,4.9,29,0.00,,---,0.00,VWS V14.01,2013-07-30 21:43:00,
2013-07-30 14:53:00,81.9,46.5,30.12,WSW,248,4.3,4.3,29,0.00,,---,0.00,VWS V14.01,2013-07-30 21:53:00,
2013-07-30 14:58:00,82.0,46.7,30.12,West,270,2.0,4.9,29,0.00,,---,0.00,VWS V14.01,2013-07-30 21:58:00,
2013-07-30 15:08:00,81.1,45.9,30.12,SW,225,2.0,4.0,29,0.00,,---,0.00,VWS V14.01,2013-07-30 22:08:00,
2013-07-30 15:18:00,81.0,45.8,30.12,SW,225,2.9,4.0,29,0.00,,---,0.00,VWS V14.01,2013-07-30 22:18:00,
2013-07-30 15:28:00,79.2,45.1,30.12,West,270,2.9,4.9,30,0.00,,---,0.00,VWS V14.01,2013-07-30 22:28:00,
2013-07-30 15:38:00,78.8,44.8,30.12,WSW,248,2.5,5.8,30,0.00,,---,0.00,VWS V14.01,2013-07-30 22:38:00,
2013-07-30 15:43:00,79.0,44.9,30.12,WSW,248,3.4,6.0,30,0.00,,---,0.00,VWS V14.01,2013-07-30 22:43:00,
2013-07-30 15:53:00,79.3,45.2,30.12,NE,45,2.0,7.6,30,0.00,,---,0.00,VWS V14.01,2013-07-30 22:53:00,
2013-07-30 15:58:00,80.2,46.0,30.12,NE,45,1.6,3.4,30,0.00,,---,0.00,VWS V14.01,2013-07-30 22:58:00,
2013-07-30 16:08:00,79.2,45.1,30.12,WNW,292,2.2,6.3,30,0.00,,---,0.00,VWS V14.01,2013-07-30 23:08:00,
2013-07-30 16:18:00,78.6,44.6,30.12,West,270,2.9,5.6,30,0.00,,---,0.00,VWS V14.01,2013-07-30 23:18:00,
2013-07-30 16:28:00,78.6,45.5,30.12,WSW,248,7.4,7.4,31,0.00,,---,0.00,VWS V14.01,2013-07-30 23:28:00,
2013-07-30 16:38:00,77.4,44.4,30.12,WSW,248,1.6,5.4,31,0.00,,---,0.00,VWS V14.01,2013-07-30 23:38:00,
2013-07-30 16:43:00,77.2,44.2,30.12,West,270,2.5,5.6,31,0.00,,---,0.00,VWS V14.01,2013-07-30 23:43:00,
2013-07-30 16:53:00,75.9,44.0,30.12,SSW,202,4.9,4.9,32,0.00,,---,0.00,VWS V14.01,2013-07-30 23:53:00,
2013-07-30 16:58:00,75.9,44.0,30.12,WNW,292,2.9,4.9,32,0.00,,---,0.00,VWS V14.01,2013-07-30 23:58:00,
2013-07-30 17:08:00,76.1,44.1,30.12,West,270,3.1,3.4,32,0.00,,---,0.00,VWS V14.01,2013-07-31 00:08:00,
2013-07-30 17:13:00,75.6,43.7,30.12,West,270,0.9,7.4,32,0.00,,---,0.00,VWS V14.01,2013-07-31 00:13:00,
2013-07-30 17:18:00,74.7,43.7,30.12,WSW,248,3.8,3.8,33,0.00,,---,0.00,VWS V14.01,2013-07-31 00:18:00,
2013-07-30 17:28:00,73.4,43.3,30.12,WNW,292,0.9,4.3,34,0.00,,---,0.00,VWS V14.01,2013-07-31 00:28:00,
2013-07-30 17:38:00,72.7,43.5,30.09,West,270,2.7,3.8,35,0.00,,---,0.00,VWS V14.01,2013-07-31 00:38:00,
2013-07-30 17:48:00,71.8,43.4,30.12,NNW,338,0.9,5.4,36,0.00,,---,0.00,VWS V14.01,2013-07-31 00:48:00,
2013-07-30 17:58:00,71.2,43.7,30.12,WNW,292,1.3,6.0,37,0.00,,---,0.00,VWS V14.01,2013-07-31 00:58:00,
2013-07-30 18:08:00,69.3,43.3,30.15,West,270,2.0,4.7,39,0.00,,---,0.00,VWS V14.01,2013-07-31 01:08:00,
2013-07-30 18:13:00,68.7,44.1,30.15,SW,225,1.6,5.4,41,0.00,,---,0.00,VWS V14.01,2013-07-31 01:13:00,
2013-07-30 18:23:00,68.9,44.9,30.09,WSW,248,0.9,3.4,42,0.00,,---,0.00,VWS V14.01,2013-07-31 01:23:00,
2013-07-30 18:28:00,68.7,44.7,30.09,WSW,248,2.2,4.3,42,0.00,,---,0.00,VWS V14.01,2013-07-31 01:28:00,
2013-07-30 18:38:00,67.1,44.5,30.15,West,270,0.9,3.6,44,0.00,,---,0.00,VWS V14.01,2013-07-31 01:38:00,
2013-07-30 18:48:00,65.8,44.5,30.12,WSW,248,1.3,4.9,46,0.00,,---,0.00,VWS V14.01,2013-07-31 01:48:00,
2013-07-30 18:58:00,64.2,44.1,30.12,WNW,292,1.1,2.9,48,0.00,,---,0.00,VWS V14.01,2013-07-31 01:58:00,
2013-07-30 19:03:00,63.7,43.6,30.15,NNW,338,1.6,2.9,48,0.00,,---,0.00,VWS V14.01,2013-07-31 02:03:00,
2013-07-30 19:13:00,62.6,44.8,30.15,West,270,1.6,3.1,52,0.00,,---,0.00,VWS V14.01,2013-07-31 02:13:00,
2013-07-30 19:23:00,61.9,45.1,30.12,SSW,202,1.3,3.8,54,0.00,,---,0.00,VWS V14.01,2013-07-31 02:23:00,
2013-07-30 19:28:00,61.3,45.0,30.12,WSW,248,2.9,5.6,55,0.00,,---,0.00,VWS V14.01,2013-07-31 02:28:00,
2013-07-30 19:38:00,60.6,45.8,30.12,SSE,158,2.0,3.1,58,0.00,,---,0.00,VWS V14.01,2013-07-31 02:38:00,
2013-07-30 19:48:00,59.7,45.8,30.12,NE,45,1.1,4.3,60,0.00,,---,0.00,VWS V14.01,2013-07-31 02:48:00,
2013-07-30 19:53:00,59.4,46.3,30.12,West,270,1.6,3.1,62,0.00,,---,0.00,VWS V14.01,2013-07-31 02:53:00,
2013-07-30 19:58:00,59.0,46.4,30.12,NNW,338,2.7,5.8,63,0.00,,---,0.00,VWS V14.01,2013-07-31 02:58:00,
2013-07-30 20:08:00,58.5,46.8,30.09,West,270,0.0,3.8,65,0.00,,---,0.00,VWS V14.01,2013-07-31 03:08:00,
2013-07-30 20:13:00,58.1,46.4,30.09,WSW,248,0.0,2.7,65,0.00,,---,0.00,VWS V14.01,2013-07-31 03:13:00,
2013-07-30 20:18:00,57.7,46.5,30.09,WNW,292,2.2,2.7,66,0.00,,---,0.00,VWS V14.01,2013-07-31 03:18:00,
2013-07-30 20:28:00,57.2,46.4,30.09,SW,225,1.1,1.1,67,0.00,,---,0.00,VWS V14.01,2013-07-31 03:28:00,
2013-07-30 20:38:00,56.8,46.4,30.12,West,270,0.0,4.7,68,0.00,,---,0.00,VWS V14.01,2013-07-31 03:38:00,
2013-07-30 20:48:00,56.5,46.8,30.12,NW,315,1.3,2.2,70,0.00,,---,0.00,VWS V14.01,2013-07-31 03:48:00,
2013-07-30 20:53:00,56.3,46.7,30.12,West,270,0.0,1.3,70,0.00,,---,0.00,VWS V14.01,2013-07-31 03:53:00,
2013-07-30 20:58:00,55.9,46.7,30.12,WSW,248,0.0,1.1,71,0.00,,---,0.00,VWS V14.01,2013-07-31 03:58:00,
2013-07-30 21:03:00,55.9,47.1,30.12,WSW,248,0.0,3.1,72,0.00,,---,0.00,VWS V14.01,2013-07-31 04:03:00,
2013-07-30 21:08:00,55.8,46.9,30.12,West,270,0.0,1.3,72,0.00,,---,0.00,VWS V14.01,2013-07-31 04:08:00,
2013-07-30 21:18:00,55.4,46.5,30.12,WSW,248,0.0,0.0,72,0.00,,---,0.00,VWS V14.01,2013-07-31 04:18:00,
2013-07-30 21:23:00,55.0,46.5,30.12,WSW,248,0.0,0.0,73,0.00,,---,0.00,VWS V14.01,2013-07-31 04:23:00,
2013-07-30 21:28:00,54.9,46.4,30.12,WSW,248,0.0,0.0,73,0.00,,---,0.00,VWS V14.01,2013-07-31 04:28:00,
2013-07-30 21:38:00,54.7,46.6,30.15,WSW,248,0.0,1.6,74,0.00,,---,0.00,VWS V14.01,2013-07-31 04:38:00,
2013-07-30 21:48:00,54.5,46.8,30.15,WNW,292,0.0,0.0,75,0.00,,---,0.00,VWS V14.01,2013-07-31 04:48:00,
2013-07-30 21:53:00,54.3,46.6,30.15,West,270,0.0,0.0,75,0.00,,---,0.00,VWS V14.01,2013-07-31 04:53:00,
2013-07-30 21:58:00,54.1,46.4,30.15,WSW,248,0.0,0.0,75,0.00,,---,0.00,VWS V14.01,2013-07-31 04:58:00,
2013-07-30 22:08:00,54.0,46.6,30.15,WSW,248,0.9,1.3,76,0.00,,---,0.00,VWS V14.01,2013-07-31 05:08:00,
2013-07-30 22:13:00,53.6,46.2,30.15,WSW,248,0.0,0.9,76,0.00,,---,0.00,VWS V14.01,2013-07-31 05:13:00,
2013-07-30 22:18:00,53.6,46.6,30.15,NNE,22,0.0,1.6,77,0.00,,---,0.00,VWS V14.01,2013-07-31 05:18:00,
2013-07-30 22:23:00,53.4,46.4,30.15,NNE,22,0.0,0.0,77,0.00,,---,0.00,VWS V14.01,2013-07-31 05:23:00,
2013-07-30 22:28:00,53.4,46.4,30.15,NE,45,0.0,0.0,77,0.00,,---,0.00,VWS V14.01,2013-07-31 05:28:00,
2013-07-30 22:38:00,53.2,46.6,30.15,NE,45,0.0,0.0,78,0.00,,---,0.00,VWS V14.01,2013-07-31 05:38:00,
2013-07-30 22:48:00,53.1,46.7,30.15,West,270,0.0,0.0,79,0.00,,---,0.00,VWS V14.01,2013-07-31 05:48:00,
2013-07-30 22:53:00,53.2,46.9,30.15,East,90,0.0,1.3,79,0.00,,---,0.00,VWS V14.01,2013-07-31 05:53:00,
2013-07-30 23:03:00,53.2,47.2,30.15,ENE,68,0.0,2.7,80,0.00,,---,0.00,VWS V14.01,2013-07-31 06:03:00,
2013-07-30 23:08:00,53.2,47.2,30.15,WSW,248,0.0,1.3,80,0.00,,---,0.00,VWS V14.01,2013-07-31 06:08:00,
2013-07-30 23:18:00,53.2,47.6,30.15,West,270,0.0,0.0,81,0.00,,---,0.00,VWS V14.01,2013-07-31 06:18:00,
2013-07-30 23:23:00,53.1,47.4,30.15,WSW,248,0.0,0.0,81,0.00,,---,0.00,VWS V14.01,2013-07-31 06:23:00,
2013-07-30 23:28:00,53.1,47.7,30.15,NW,315,0.0,0.0,82,0.00,,---,0.00,VWS V14.01,2013-07-31 06:28:00,
2013-07-30 23:38:00,53.1,47.7,30.15,SSW,202,0.0,0.0,82,0.00,,---,0.00,VWS V14.01,2013-07-31 06:38:00,
2013-07-30 23:43:00,53.1,47.7,30.15,SSW,202,0.0,0.0,82,0.00,,---,0.00,VWS V14.01,2013-07-31 06:43:00,
2013-07-30 23:53:00,53.6,48.6,30.15,West,270,2.0,2.0,83,0.00,,---,0.00,VWS V14.01,2013-07-31 06:53:00,